Find Local Weather

World > North America > United States > Michigan

Leland, Michigan Regional Weather

Lat: 45.02N, Lon: 85.77W
Wx Zone: MIZ020
Feedback
Expires:201804212000;;294064
ASUS43 KDTX 211901
RWRMI 
MICHIGAN HOURLY REGIONAL WEATHER ROUNDUP
NATIONAL WEATHER SERVICE DETROIT/PONTIAC MI
300 PM EDT SAT APR 21 2018

NOTE: "FAIR" INDICATES FEW OR NO CLOUDS BELOW 12,000 FEET WITH NO
SIGNIFICANT WEATHER AND/OR OBSTRUCTION TO VISIBILITY.


MIZ016>042-212000-
NORTHERN LOWER MICHIGAN
  
CITY           SKY/WX    TMP DP  RH WIND       PRES   REMARKS
ALPENA         FAIR      51  21  30 E10       30.41F                  
BEAVER ISLAND  FAIR      49  17  27 S12       30.40F                  
BELLAIRE       FAIR      55  10  17 SW3       30.42S                  
CADILLAC       FAIR      55  15  20 CALM      30.38F                  
CHARLEVOIX     FAIR      53  22  29 W7        30.45S                  
FRANKFORT      FAIR      51  13  21 SW7       30.42F                  
GAYLORD        FAIR      55  10  16 CALM      30.39F                  
GRAYLING       FAIR      54  11  17 SW3       30.39F                  
HARBOR SPRINGS FAIR      51  18  27 SW7       30.41F                  
HOUGHTON LAKE  FAIR      55  15  20 SW8       30.40F                  
MANISTEE       FAIR      55  16  21 W9        30.41F                  
OSCODA         FAIR      54  26  34 E8        30.42S                  
PELLSTON       FAIR      54  13  19 S7        30.41F                  
ROGERS CITY    FAIR      46  16  29 E3        30.42F                  
TRAVERSE CITY  FAIR      56  17  21 NW5       30.40F                  
$$

SKY/WX - Weather  TMP - Temperature  DP - Dewpoint  RH - Relative Humidity
WIND - Wind Direction/Speed PRES - Barometric Pressure